Location: Unspecified
(48.8656°N, 0.0000°E)
Time: 12:52:18
(UTC+00:00)

Transit 2A Rocket - Pass Details

Date: 18 June 2019
Orbit: 588 x 915 km, 66.7° (Epoch: 20 July)

Event Time Altitude Azimuth Distance (km) Brightness Sun altitude
Rises 13:19:58 0° 260° (W) 3,544 8.7 60.2°
Reaches altitude 10° 13:23:01 10° 274° (W) 2,590 8.1 59.9°
Maximum altitude 13:27:53 25° 327° (NNW) 1,724 7.1 59.3°
Drops below altitude 10° 13:32:35 10° 22° (NNE) 2,484 7.5 58.8°
Sets 13:35:27 0° 36° (NE) 3,369 8.0 58.5°
